[[{"header":{"parameterUnit":"m.s-1","parameterCategory":1,"la1":30.2991,"la2":30.254,"lo1":-89.0895,"lo2":-89.0444,"dy":0.0017,"dx":0.0017,"nx":28,"ny":28,"refTime":"2025-12-28T09:00:00:Z","depth":0,"parameterNumber":2,"parameterNumberName":"U-component_of_WINDS"},"data":[0,0,0,0,0,0,0,0,0,0,0,0,0,0,0,0,0,0,0,0,0,0,0,0,0,0,0,0,0,0,0,0,0,0,0,0,0,0,0,0,0,0,0,0,0,0,0,0,0,0,0,0,0,0,0,0,0,0,1.6913,1.6913,0,1.69,1.69,1.69,1.6883,1.6882,1.6882,1.6882,1.6867,1.6866,1.6866,0,0,0,0,0,0,0,0,0,0,0,0,0,1.6921,1.6921,1.6913,1.6913,1.6912,1.69,1.69,1.69,1.6883,1.6882,1.6882,1.6882,1.6867,1.6866,1.6866,0,0,0,0,0,0,0,0,0,0,0,0,0,1.6914,1.6921,1.6913,1.6902,1.6901,1.69,1.69,1.69,1.6883,1.6882,1.6882,1.6881,1.6867,1.6866,1.6866,1.6874,0,0,1.6866,1.6866,0,0,0,0,0,0,0,0,1.6914,1.6913,1.6904,1.6903,1.6902,1.6893,1.6897,1.6891,1.6883,1.689,1.6882,1.6881,1.6875,1.6874,1.6873,1.6873,1.6872,1.6866,1.6865,1.6865,1.6865,0,0,0,0,0,0,0,1.6915,1.6914,1.6908,1.6904,1.6903,1.6898,1.6897,1.6896,1.6885,1.6889,1.6888,1.6887,1.6875,1.6873,1.6872,1.6872,1.6866,1.6865,1.6865,1.6865,1.6879,1.6879,0,0,0,0,0,0,1.6917,1.6914,1.6908,1.6907,1.6907,1.6898,1.6897,1.6896,1.6885,1.6883,1.6887,1.6886,1.6874,1.6873,1.6872,1.688,1.6865,1.6865,1.6865,1.6878,1.6879,1.688,0,0,0,0,0,0,1.6917,1.6916,1.6909,1.6911,1.6909,1.6899,1.6898,1.6896,1.6894,1.6884,1.6881,1.6888,1.6873,1.6872,1.6874,1.688,1.6865,1.6865,1.6878,1.6879,1.6879,1.6897,0,0,0,0,0,0,1.6917,1.6917,1.6919,1.6911,1.6909,1.6911,1.6898,1.6896,1.6894,1.6893,1.6883,1.6881,1.6873,1.6874,1.6874,1.6879,1.6865,1.6877,1.6878,1.6879,1.6896,1.6899,1.6901,0,0,0,0,0,1.6918,1.6924,1.692,1.6919,1.6912,1.6911,1.691,1.6901,1.6895,1.6898,1.6891,1.6882,1.688,1.6875,1.6874,1.6879,1.6877,1.6878,1.6879,1.6895,1.6898,1.6901,0,0,0,0,0,0,1.6932,1.6923,1.6917,1.6921,1.6918,1.6908,1.6911,1.6904,1.6901,1.69,1.6888,1.6886,1.6889,1.6884,1.6879,1.6887,1.6877,1.6878,1.6889,1.6892,1.6894,1.6895,1.6865,0,0,0,0,0,1.6936,1.6936,1.6928,1.6932,1.6931,1.6922,1.6921,1.6914,1.6909,1.6907,1.69,1.6896,1.6894,1.6893,1.6891,1.6896,1.6894,1.6899,1.6902,1.6904,1.6904,1.6908,1.691,1.6883,1.6883,1.6883,0,0,1.6943,1.6938,1.6939,1.6935,1.6931,1.6932,1.692,1.6921,1.6921,1.6907,1.6908,1.6904,1.6898,1.6902,1.6903,1.6897,1.6912,1.6905,1.6907,1.6906,1.6909,1.6912,1.6914,1.6884,1.6884,1.6884,0,0,1.6957,1.6953,1.6957,1.6954,1.6949,1.6943,1.6944,1.6937,1.6934,1.6935,1.6925,1.6926,1.6923,1.6919,1.6917,1.6932,1.6924,1.6932,1.6943,1.6947,1.6949,1.6951,1.6956,1.6958,1.6933,1.6933,1.6933,0,1.6967,1.6967,1.6959,1.6961,1.696,1.6949,1.6953,1.695,1.6945,1.6944,1.6939,1.6936,1.6931,1.6934,1.6939,1.6937,1.6938,1.6932,1.6949,1.6951,1.6953,1.6958,1.696,1.6934,1.6934,1.6934,1.6934,0,1.698,1.6981,1.6984,1.698,1.698,1.6982,1.6975,1.6975,1.6969,1.6964,1.6967,1.6961,1.6958,1.6959,1.6952,1.6962,1.6959,1.6952,1.6941,1.6956,1.6961,1.6963,1.6935,1.6935,1.6935,1.6934,0,0,1.7,1.6994,1.6995,1.6994,1.6989,1.6989,1.6992,1.699,1.6991,1.6988,1.699,1.6989,1.6983,1.6981,1.6975,1.6978,1.6991,1.697,1.697,1.6974,1.7001,1.7006,1.7009,1.6986,1.6987,1.6987,1.7002,0,1.7012,1.7017,1.7011,1.7017,1.7018,1.7009,1.7012,1.7009,1.7005,1.7005,1.7001,1.7,1.6993,1.6991,1.6994,1.6989,1.6996,1.6988,1.6988,1.6988,1.6989,1.7011,1.7016,1.703,1.7004,1.7004,1.7004,0,1.7027,1.7026,1.7033,1.7029,1.7029,1.7032,1.703,1.7031,1.7028,1.7025,1.7024,1.7017,1.702,1.7011,1.7015,1.7009,1.7009,1.7007,1.7007,1.7006,1.6996,1.701,1.7035,1.7037,1.7007,1.7007,1.7007,0,1.7041,1.7042,1.7046,1.7046,1.7041,1.7043,1.7041,1.7038,1.7038,1.7037,1.7037,1.7036,1.7036,1.7035,1.7029,1.7023,1.7033,1.7024,1.7031,1.7031,1.7032,1.7032,1.7056,1.7033,1.7033,1.7033,1.7033,0,1.7055,1.7059,1.7053,1.7055,1.706,1.7054,1.7059,1.7056,1.7054,1.7056,1.7048,1.705,1.7041,1.7043,1.7038,1.7042,1.7041,1.7039,1.7037,1.7039,1.704,1.7038,1.7037,1.7034,1.7034,1.7033,1.7033,0,1.7071,1.7067,1.7071,1.7068,1.7067,1.7071,1.7068,1.707,1.7066,1.7069,1.7069,1.7064,1.7065,1.7059,1.7058,1.7055,1.7061,1.7058,1.7063,1.7061,1.7069,1.7068,1.7092,1.7095,1.7071,1.7071,1.7071,0,1.708,1.7083,1.7081,1.7082,1.7081,1.7083,1.7084,1.7078,1.7079,1.7077,1.708,1.7081,1.7081,1.7083,1.7079,1.7079,1.7076,1.7084,1.7075,1.7078,1.7076,1.7075,1.7076,1.7086,1.7086,1.7086,1.7086,0,1.7096,1.7094,1.7096,1.7097,1.7098,1.7099,1.7098,1.71,1.7094,1.7095,1.7097,1.7098,1.7099,1.7099,1.7099,1.7097,1.7091,1.709,1.7091,1.7093,1.7095,1.7094,1.7067,1.7089,1.7088,1.7088,1.7088,1.7088,1.7108,1.7112,1.7111,1.7113,1.7113,1.7113,1.7116,1.7114,1.7115,1.7116,1.7113,1.7116,1.7114,1.7113,1.7112,1.7114,1.711,1.7112,1.7113,1.7113,1.7115,1.7096,1.7114,1.7114,1.7114,1.7114,1.7114,0,1.7124,1.7124,1.7126,1.7127,1.7129,1.7125,1.7125,1.7127,1.713,1.7129,1.7131,1.7133,1.7135,1.7132,1.7133,1.7135,1.7132,1.7136,1.7135,1.7135,1.7118,1.7117,1.7138,1.7138,1.7138,1.7138,1.7138,1.7138,1.7132,1.7138,1.7137,1.7142,1.7142,1.7145,1.7146,1.7146,1.7146,1.715,1.7152,1.715,1.7149,1.715,1.7152,1.7151,1.7151,1.7156,1.7154,1.7138,1.7136,1.7133,1.7132,1.7156,1.7156,1.717,1.717,1.717]},{"header":{"parameterUnit":"m.s-1","parameterCategory":1,"la1":30.2991,"la2":30.254,"lo1":-89.0895,"lo2":-89.0444,"dy":0.0017,"dx":0.0017,"nx":28,"ny":28,"refTime":"2025-12-28T09:00:00:Z","depth":0,"parameterNumber":3,"parameterNumberName":"V-component_of_WINDS"},"data":[0,0,0,0,0,0,0,0,0,0,0,0,0,0,0,0,0,0,0,0,0,0,0,0,0,0,0,0,0,0,0,0,0,0,0,0,0,0,0,0,0,0,0,0,0,0,0,0,0,0,0,0,0,0,0,0,0,0,-8.3886,-8.3888,0,-8.4028,-8.403,-8.4031,-8.3965,-8.3962,-8.3958,-8.3955,-8.4094,-8.4101,-8.4108,0,0,0,0,0,0,0,0,0,0,0,0,0,-8.3555,-8.3561,-8.3886,-8.3888,-8.389,-8.4028,-8.403,-8.4032,-8.3966,-8.3962,-8.3957,-8.3953,-8.4092,-8.41,-8.4108,0,0,0,0,0,0,0,0,0,0,0,0,0,-8.3698,-8.3564,-8.3886,-8.3874,-8.3874,-8.4027,-8.403,-8.4032,-8.3967,-8.3962,-8.3956,-8.3951,-8.4089,-8.4099,-8.411,-8.4281,0,0,-8.4142,-8.4146,0,0,0,0,0,0,0,0,-8.369,-8.371,-8.3874,-8.3875,-8.3876,-8.3974,-8.3964,-8.4115,-8.3968,-8.3932,-8.3955,-8.3949,-8.4058,-8.4071,-8.4109,-8.4287,-8.4293,-8.4143,-8.4149,-8.4153,-8.4156,0,0,0,0,0,0,0,-8.368,-8.3704,-8.3942,-8.3876,-8.3877,-8.386,-8.3875,-8.3992,-8.4023,-8.3934,-8.393,-8.3948,-8.4057,-8.4099,-8.4111,-8.4295,-8.4142,-8.4152,-8.4158,-8.4162,-8.4624,-8.4629,0,0,0,0,0,0,-8.3671,-8.3696,-8.3938,-8.3946,-8.3768,-8.387,-8.3887,-8.3947,-8.4021,-8.4027,-8.3952,-8.3944,-8.4083,-8.4099,-8.4116,-8.4323,-8.4153,-8.4163,-8.4169,-8.4618,-8.4625,-8.4631,0,0,0,0,0,0,-8.3664,-8.3693,-8.3932,-8.382,-8.3849,-8.3882,-8.3951,-8.3953,-8.3994,-8.4035,-8.4039,-8.3989,-8.408,-8.4101,-8.4241,-8.4327,-8.4168,-8.4178,-8.4611,-8.462,-8.4628,-8.4738,0,0,0,0,0,0,-8.3655,-8.3691,-8.3757,-8.3822,-8.3855,-8.4056,-8.3956,-8.396,-8.4014,-8.4004,-8.4071,-8.4077,-8.4077,-8.4226,-8.4252,-8.4339,-8.4186,-8.4603,-8.4615,-8.4625,-8.4726,-8.4749,-8.4769,0,0,0,0,0,-8.3643,-8.3781,-8.3761,-8.3791,-8.3939,-8.4061,-8.408,-8.408,-8.4021,-8.4087,-8.4114,-8.4075,-8.4313,-8.4241,-8.4269,-8.4361,-8.4598,-8.4611,-8.4624,-8.4717,-8.4745,-8.4768,0,0,0,0,0,0,-8.3722,-8.3789,-8.3768,-8.3931,-8.3991,-8.405,-8.4134,-8.4109,-8.4186,-8.4174,-8.4168,-8.4184,-8.4329,-8.4358,-8.4277,-8.4531,-8.4446,-8.4466,-8.4507,-8.4534,-8.4554,-8.4544,-8.4194,0,0,0,0,0,-8.3759,-8.3855,-8.3907,-8.4045,-8.4077,-8.4101,-8.4154,-8.4149,-8.421,-8.4235,-8.4271,-8.4331,-8.442,-8.4478,-8.4562,-8.473,-8.4744,-8.4807,-8.4828,-8.4845,-8.4862,-8.4955,-8.4984,-8.4675,-8.4675,-8.4675,0,0,-8.3835,-8.3884,-8.3944,-8.4063,-8.4109,-8.4207,-8.4122,-8.4229,-8.4301,-8.425,-8.4386,-8.4415,-8.4481,-8.4637,-8.4707,-8.4666,-8.4951,-8.4862,-8.4876,-8.4884,-8.4972,-8.5001,-8.5027,-8.4684,-8.4683,-8.4681,0,0,-8.4025,-8.4071,-8.4192,-8.4241,-8.4314,-8.4329,-8.4358,-8.4422,-8.444,-8.4577,-8.4541,-8.4626,-8.4779,-8.4828,-8.4873,-8.5085,-8.5052,-8.5112,-8.5222,-8.5313,-8.5337,-8.5358,-8.5435,-8.5462,-8.5129,-8.5129,-8.5129,0,-8.411,-8.4258,-8.4257,-8.4368,-8.4422,-8.4383,-8.4506,-8.4553,-8.4648,-8.4685,-8.4638,-8.4831,-8.4872,-8.504,-8.5092,-8.513,-8.5163,-8.5104,-8.5334,-8.5355,-8.5375,-8.5448,-8.5477,-8.5136,-8.5135,-8.5134,-8.5134,0,-8.4359,-8.4463,-8.4552,-8.4649,-8.4712,-8.4828,-8.4844,-8.4909,-8.4899,-8.4919,-8.5058,-8.5108,-8.5202,-8.5241,-8.5231,-8.5408,-8.538,-8.5334,-8.5248,-8.5412,-8.548,-8.5508,-8.5146,-8.5143,-8.5141,-8.5139,0,0,-8.4601,-8.4698,-8.4731,-8.4775,-8.4854,-8.4933,-8.5047,-8.5142,-8.5198,-8.5265,-8.5361,-8.5492,-8.5451,-8.5502,-8.5497,-8.5577,-8.5743,-8.552,-8.5522,-8.5561,-8.5943,-8.5978,-8.601,-8.5722,-8.5727,-8.5731,-8.5937,0,-8.4797,-8.5,-8.5004,-8.519,-8.5286,-8.5252,-8.5352,-8.541,-8.5433,-8.5516,-8.5539,-8.5634,-8.5571,-8.5602,-8.5679,-8.5706,-8.5819,-8.5691,-8.581,-8.5815,-8.5796,-8.6046,-8.6083,-8.6275,-8.5964,-8.5968,-8.5972,0,-8.5052,-8.5132,-8.5328,-8.5395,-8.5436,-8.5526,-8.5614,-8.5695,-8.576,-8.577,-8.583,-8.5814,-8.593,-8.5841,-8.6001,-8.5914,-8.5963,-8.5984,-8.5991,-8.6003,-8.5903,-8.6065,-8.6336,-8.6366,-8.6014,-8.601,-8.6007,0,-8.5211,-8.5366,-8.5505,-8.5543,-8.5624,-8.5689,-8.5725,-8.5786,-8.5843,-8.592,-8.5957,-8.6045,-8.6093,-8.6161,-8.6169,-8.6103,-8.633,-8.6242,-8.6342,-8.6342,-8.6391,-8.6388,-8.6676,-8.6422,-8.6421,-8.6421,-8.642,0,-8.5429,-8.5551,-8.5577,-8.5662,-8.5798,-8.5801,-8.5935,-8.5966,-8.6021,-8.6111,-8.6085,-8.617,-8.6175,-8.6261,-8.6268,-8.64,-8.6421,-8.6433,-8.6433,-8.6436,-8.6435,-8.6468,-8.6455,-8.6429,-8.6427,-8.6425,-8.6424,0,-8.5629,-8.5651,-8.58,-8.5866,-8.5886,-8.5983,-8.6039,-8.612,-8.614,-8.6255,-8.6281,-8.6313,-8.6414,-8.6429,-8.6546,-8.655,-8.6709,-8.6695,-8.6688,-8.6687,-8.6786,-8.6777,-8.7106,-8.7149,-8.6866,-8.6869,-8.6871,0,-8.5767,-8.5861,-8.5938,-8.5998,-8.6039,-8.6135,-8.6195,-8.6202,-8.6264,-8.6348,-8.6419,-8.6518,-8.6597,-8.676,-8.6792,-8.6882,-8.687,-8.6979,-8.6883,-8.6884,-8.6873,-8.6868,-8.6878,-8.6998,-8.7001,-8.7003,-8.7005,0,-8.6011,-8.6019,-8.6107,-8.62,-8.6273,-8.6345,-8.6414,-8.6464,-8.6479,-8.6551,-8.6656,-8.6718,-8.6839,-8.6938,-8.7027,-8.7062,-8.7037,-8.7035,-8.7063,-8.7067,-8.706,-8.7067,-8.674,-8.7028,-8.7025,-8.7024,-8.7023,-8.7022,-8.6185,-8.6268,-8.6337,-8.6436,-8.6489,-8.6555,-8.6635,-8.6667,-8.6755,-8.6857,-8.6855,-8.697,-8.7034,-8.7152,-8.7194,-8.7283,-8.7247,-8.7288,-8.7298,-8.7308,-8.7319,-8.7046,-8.7299,-8.7299,-8.7298,-8.7297,-8.7297,0,-8.6429,-8.6472,-8.6564,-8.6663,-8.6741,-8.6713,-8.6788,-8.6855,-8.6958,-8.7021,-8.7101,-8.7222,-8.7318,-8.7359,-8.7453,-8.7516,-8.7507,-8.7541,-8.7536,-8.7545,-8.7345,-8.7312,-8.7547,-8.7547,-8.7547,-8.7547,-8.7547,-8.7547,-8.6565,-8.6705,-8.672,-8.6886,-8.6927,-8.7042,-8.7087,-8.7148,-8.7199,-8.7336,-8.7417,-8.7444,-8.7498,-8.7597,-8.7683,-8.7693,-8.7729,-8.7768,-8.7773,-8.7584,-8.7559,-8.7535,-8.7504,-8.7776,-8.7776,-8.7966,-8.7968,-8.7969]}]]